Tracking 27112 objects as of 26-Mar-2023
HD Live streaming from Space Station
objects crossing your sky now

FLOCK 4A 15

Track FLOCK 4A 15 now!
10-day predictions
FLOCK 4A 15 is classified as:


NORAD ID: 44100
Int'l Code: 2019-018Y
Perigee: 362.9 km
Apogee: 373.1 km
Inclination: 97.2 °
Period: 91.8 minutes
Semi major axis: 6738 km
RCS: Unknown
Launch date: April 1, 2019
Source: United States (US)
Launch site: SRIHARIKOTA (SRI)
Your satellite tracking list
Your tracking list is empty




NASA's NSSDC Master Catalog

Two Line Element Set (TLE):
1 44100U 19018Y   23085.39811537  .00327138  00000-0  26981-2 0  9995
2 44100  97.2480 151.3693 0007559 210.9539 149.1278 15.69328127222208
Source of the keplerian elements: AFSPC